Back to catalog

DMSP 5D-2 F13 DEB

AlivePO
NORAD 40437·DEBRIS·🇺🇸 United States

Launched Mar 24, 1995 from Vandenberg Space Force Base

Loading…

Next Passes (next 24 hours)

TLE

FreshSource: Space-Track

Epoch: Sep 14, 2026, 04:36 UTC

1 40437U 95015AP  26257.19189871  .00023345  00000-0  30393-2 0  9991
2 40437  98.6662 344.0698 0015523 159.0056 201.1795 14.80534851603242

Track DMSP 5D-2 F13 DEB in real time with AllMySat

Download on the App Store